Hourly Data Report for September 27, 2017

All times are specified in Local Standard Time (LST). Add 1 hour to adjust for Daylight Saving Time where and when it is observed.

GRAND MANAN SAR CS
NEW BRUNSWICK

44°42'43.400" N
66°48'06.900" W
78.20 m
8101925
71030
XGM

Download Data

Hourly Data (September 2017)
Hourly Data Report for September 27, 2017
Temp Definition
°C
Dew Point Temp Definition
°C
Rel Hum Definition
%
Wind Dir Definition
10's deg

Wind Spd Definition
km/h
Visibility Definition
km
Stn Press Definition
kPa
Hmdx Definition


Wind Chill Definition


Weather Definition


TIME
00:00 17.1 16.8 98 33 3   100.65     LegendNANA
01:00 16.4 16.1 98 9 5   100.64     LegendNANA
02:00 14.6 14.3 98 7 7   100.60     LegendNANA
03:00 14.9 14.6 98   0   100.59     LegendNANA
04:00 14.5 14.2 98 8 4   100.56     LegendNANA
05:00 14.8 14.5 98 16 3   100.54     LegendNANA
06:00 15.2 15.0 99   0   100.52     LegendNANA
07:00 16.0 15.8 99 12 1   100.53     LegendNANA
08:00 14.8 14.6 99 7 7   100.53     LegendNANA
09:00 16.5 16.3 99 15 4   100.53     LegendNANA
10:00 17.8 17.5 98 16 6   100.51     LegendNANA
11:00 18.4 17.4 94 20 14   100.45     LegendNANA
12:00 18.5 17.3 93 21 15   100.37     LegendNANA
13:00 19.0 17.3 90 21 17   100.31     LegendNANA
14:00 17.9 16.8 94 21 12   100.27     LegendNANA
15:00 22.4 18.1 77 22 15   100.16 28   LegendNANA
16:00 18.1 15.9 87 20 19   100.14     LegendNANA
17:00 16.6 15.6 94 20 19   100.05     LegendNANA
18:00 16.6 16.2 98 21 20   99.99     LegendNANA
19:00 17.0 16.8 99 21 17   99.97     LegendNANA
20:00 16.9 16.7 99 21 14   99.95     LegendNANA
21:00 17.6 17.5 99 21 14   99.91     LegendNANA
22:00 18.4 18.2 99 23 21   99.86     LegendNANA
23:00 17.9 17.8 99 23 18   99.79     LegendNANA

Notes on Data Quality.

Legend

  • E = Estimated
  • M = Missing
  • NA = Not Available
  • ‡ = Partner data that is not subject to review by the National Climate Archives
Date modified: